Location: Bryzozowice
(50.3667°N, 18.9667°E)
Time: 12:12:35
(UTC+00:00)

Cosmos 44 - Pass Details

Date: 24 January 2020
Orbit: 595 x 767 km, 65.1° (Epoch: 16 February)

Event Time Altitude Azimuth Distance (km) Brightness Sun altitude
Rises 16:39:50 0° 195° (SSW) 2,953 7.0 -12.2°
Reaches altitude 10° 16:42:16 10° 188° (S) 2,020 6.0 -12.5°
Maximum altitude 16:46:28 38° 120° (ESE) 956 3.7 -13.2°
Enters shadow 16:48:52 21° 66° (ENE) 1,389 4.2 -13.6°
